FORMOSAT 7-3 (44343 NORAD) Tracking and Keplerian Element Data

This shows tracking and keplerian element data for the satellite.

Feedback or suggestion? Click here.




ElementValue
Catalog44343
NameFORMOSAT 7-3
Epoch Orbit325
Epoch Day198.71428594
Epoch Year2019
RAAN63.6445
Inclination24.0021
Eccentricity0.0012014
Argument of Perigee81.1874
Mean Anonmoly278.9442
Mean Motion14.53156753
Decay Rate3.44E-06
L11 44343U 19036E 19198.71428594 .00000344 00000-0 31352-4 0 9994
L22 44343 24.0021 63.6445 0012014 81.1874 278.9442 14.53156753 3250

Live tracking and technical data element details for FORMOSAT 7-3 (NORAD 44343). FORMOSAT 7-3 can be tracked NOW for your location showing map with azimuth and elevation plus other details from your city location.

Track the satellite on the map from your city or location and see movement details for azimuth, elevation, latitude, longitude, range, height, and movement on the map or in text.







IsCatalogInMostPopularTable: catalog: 44343, numindb: 3
Update: records affected: 1



GetName: 44343 FORMOSAT 7-3

Hit Count: updated at: Fri, 19 Jul 2019 07:58:34 GMT